www.pogodaiklimat.ru

Погода и климат >> Архив погоды >> Россия >> Якутия >> Верхневилюйск


ПОГОДА в Верхневилюйске

  • Прогноз погоды в Верхневилюйске
  • Монитор погоды в Верхневилюйске

АРХИВ ПОГОДЫ в Верхневилюйске

Время (UTC), дата Ветер
(напр.,м/с)
 
Видим.   Явления Облачность Т
(С)
Тd
(С)
f
(%)
Тe
(С)
Тes
(С)
Комфортность P
(гПа)
Po
(гПа)
Тmin
(С)
Tmax
(С)
R
(мм)
R24
(мм)
S
(см)
06 15.09 С 2 50 км 10/3 1000 м
[Sc Ac trans Cs]
+4.2 -3.3 58 +2 +3 1001.1 987.0
09 15.09 В 2 50 км 8/3 1000 м
[Sc Ci]
+4.3 -1.8 64 +2 +2 1002.1 988.0
12 15.09 Ю 1 20 км 8/0
[Ac trans]
+1.1 -1.8 81 -1 -1 1004.0 989.7 +5.0
15 15.09 Ю 1 20 км 3/0
[Ac trans]
+0.6 -4.8 67 -1 -1 1004.6 990.3
18 15.09 Ю 2 20 км 6/0
[Ac trans]
-0.1 -4.6 72 -3 -3 1004.6 990.3
21 15.09 Ю 2 20 км 10/4 1000 м
[Sc As op]
-0.4 -3.5 80 -4 -4 1005.5 991.2
00 16.09 Ю 2 50 км 10/10 1260 м
[Sc]
+2.0 -1.1 80 -1 -1 1006.2 992.0 -0.6
03 16.09 ЮВ 3 50 км 10/10 1500 м
[St]
+4.1 -1.1 69 +1 +1 1007.4 993.2
06 16.09 СВ 1 50 км 10/10 1500 м
[St]
+6.5 -2.2 54 +6 +6 1008.0 993.9
09 16.09 СВ 1 50 км 9/9 1050 м
[Cb calv]
+5.5 -0.3 66 +5 +5 1009.8 995.7
12 16.09 В 2 20 км 9/5 1000 м
[Sc Ac trans]
+4.1 +0.4 77 +1 +1 1011.4 997.2 +7.2
15 16.09 штиль 0 20 км 6/0
[Ac trans]
+2.5 +0.4 86 +1 +1 1012.1 997.7
18 16.09 З 1 20 км 6/0
[Ac trans]
-0.4 -0.7 98 -3 -3 1013.4 998.9
21 16.09 З 2 20 км 10/8 900 м
[Sc As op]
0.0 -0.3 98 -4 -4 1014.4 999.9
00 17.09 З 3 50 км 10/10 900 м
[St]
+0.9 +0.1 94 -4 -4 1015.3 1000.8 -0.0
03 17.09 З 4 50 км 9/9 1050 м
[St]
+1.5 -0.5 87 -4 -3 1016.4 1002.0
06 17.09 З 5 50 км 4/4 600 м
[Sc]
+6.3 -0.8 60 +2 +4 1015.9 1001.7
09 17.09 СЗ 4 50 км 1/1 600 м
[Sc]
+6.3 -4.8 45 +3 +3 1016.4 1002.2
12 17.09 З 2 20 км ясно -0.4 -4.2 75 -4 -4 1017.8 1003.1 +6.8
15 17.09 З 2 н/о н/о -2.5 -4.7 85 -6 -6 1017.5 1002.8
18 17.09 З 3 н/о н/о -2.9 -4.7 87 -8 -8 1017.1 1002.4
21 17.09 З 3 н/о н/о -3.2 -5.2 86 -8 -8 1017.0 1002.3
00 18.09 З 3 50 км ясно -1.1 -3.7 82 -6 -5 1016.9 1002.3 -3.5
03 18.09 З 4 50 км ясно +5.0 -4.0 52 +1 +4 1016.0 1001.7
06 18.09 З 3 50 км 1/1 1000 м
[Cu hum]
+7.7 -5.0 40 +6 +8 1015.1 1001.0
09 18.09 З 2 50 км ясно +7.6 -5.7 38 +6 +7 1014.6 1000.4
12 18.09 штиль 0 20 км ясно -2.0 -5.0 80 -3 -3 1014.7 1000.1 +8.0
15 18.09 штиль 0 н/о н/о -5.7 -6.9 91 -7 -7 1013.8 999.0
18 18.09 штиль 0 н/о н/о -7.3 -8.2 93 -8 -8 1012.5 997.6
21 18.09 СВ 1 н/о н/о -4.5 -5.3 94 -7 -7 1011.7 997.0
00 19.09 СВ 2 50 км 3/0
[Ac trans]
-0.5 -2.6 86 -4 -3 1010.9 996.5 -7.9
03 19.09 СВ 4 50 км 4/0
[Ci fib]
+5.9 -2.4 55 +3 +5 1010.3 996.2
06 19.09 С 3 50 км 4/4 1000 м
[Cu med, cong]
+8.6 -3.8 41 +7 +8 1011.1 997.1
09 19.09 С 3 50 км 8/4 1000 м
[Sc Ac trans]
+6.5 -2.9 51 +4 +4 1013.2 999.0
12 19.09 СЗ 2 20 км 4/0
[Ac trans]
+1.5 -3.3 70 -2 -2 1016.0 1001.5 +8.6
15 19.09 З 2 н/о н/о +1.0 -2.8 76 -2 -2 1017.0 1002.5
18 19.09 З 3 н/о н/о 0.0 -3.2 79 -5 -5 1017.6 1003.1
21 19.09 З 2 н/о н/о -1.6 -4.1 83 -5 -5 1018.4 1003.8
00 20.09 З 2 50 км 8/0
[Ci]
+0.8 -4.2 69 -2 -2 1018.2 1003.6 -1.8
03 20.09 ЮЗ 2 50 км 1/0
[Ci fib]
+5.4 -3.8 51 +3 +7 1016.3 1002.0
06 20.09 З 4 50 км 1/1 600 м
[Cu hum]
+8.3 -6.7 34 +6 +8 1014.3 1000.2
09 20.09 Ю 2 50 км 1/0
[Ci fib]
+7.3 -7.1 35 +6 +6 1013.6 999.4
12 20.09 Ю 1 20 км 4/0
[Ci fib]
+2.6 -6.0 53 +2 +2 1013.2 998.8 +8.6
15 20.09 ЮВ 2 н/о н/о +1.2 -5.5 61 -2 -2 1012.0 997.6
18 20.09 ЮВ 2 н/о н/о -2.2 -5.8 76 -6 -6 1011.4 996.8
21 20.09 В 1 н/о н/о +0.1 -4.7 70 -2 -2 1011.4 996.9
00 21.09 ЮВ 2 50 км 10/0
[As op]
+1.3 -3.9 68 -2 -2 1011.3 996.9 -2.4
03 21.09 В 2 50 км 10/4 1000 м
[Sc As op]
+5.7 -0.3 65 +4 +4 1009.7 995.6
06 21.09 ЮВ 2 50 км в посл. час дождь 10/4 1000 м
[Sc As op]
+7.5 +3.0 73 +6 +6 1008.3 994.3
09 21.09 ЮВ 4 10 км слаб. дождь 10/3 1000 м
[Sc As op]
+7.9 +3.4 73 +5 +5 1005.8 991.9
12 21.09 ЮВ 4 10 км слаб. дождь 10/6 1350 м
[Sc As op]
+6.7 +4.6 86 +3 +3 1004.1 990.1 +8.2 0.8
15 21.09 ЮЗ 1 н/о н/о +7.4 +6.7 95 +6 +6 1002.4 988.5
18 21.09 штиль 0 н/о н/о +5.9 +5.5 97 +5 +5 1001.8 987.8
21 21.09 З 3 н/о н/о +7.3 +7.0 98 +4 +4 1003.7 989.7
00 22.09 З 3 50 км ясно +7.0 +4.3 83 +4 +5 1005.7 991.7 +3.9 5
03 22.09 З 4 50 км 1/1 300 м
[St]
+10.0 +3.4 64 +8 +10 1006.5 992.6

 

Местоположение метеостанции Верхневилюйск (Якутия, Россия): широта 63.45 долгота 120.20 высота над уровнем моря 115 м.

В архиве по умолчанию представлена погода в Верхневилюйске за последнюю неделю. Архивные данные за месяц целиком и за предыдущие месяцы, начиная с января 2011 года, Вы можете получить, выбрав интересующий диапазон дат из раскрывающегося списка и нажав кнопку "Ввод!".


*Определитесь, кто Вы:
робот инопланетянин человек

Внимание! Время в таблицах - всемирное. Для получения местного времени необходимо прибавить поправку, которая равна 9 ч.

Смотрите также архив погоды в соседних городах и на ближайших метеорологических станциях:

Погода в Вилюйске (Якутия, Россия) (78 км)
Погода в Нюрбе (Якутия, Россия) (97 км)
Погода в Чумпуруке (Якутия, Россия) (184 км)
Погода в Сунтаре (Якутия, Россия) (194 км)
Погода в Хатырык-Хомо (Якутия, Россия) (233 км)
Погода в Крестяхе (Якутия, Россия) (246 км)
Погода в Тонгулахе (Якутия, Россия) (278 км)
Погода в Бестяхской Звероферме (Якутия, Россия) (278 км)
Погода в Килиере (Якутия, Россия) (282 км)
Погода в Эйке (Якутия, Россия) (316 км)

Пояснения к столбцам:

Ветер - указаны скорость ветра в м/с - средняя за 10 мин, порывы в срок и между сроками (в фигурных скобках) и направление, откуда дует ветер: С - северный, СВ - северо-восточный, В - восточный, ЮВ - юго-восточный, Ю - южный, ЮЗ - юго-западный, З - западный, СЗ - северо-западный.
Видимость - горизонтальная дальность видимости в метрах или километрах. При видимости от 1 до 10 км при отсутствии осадков обычно наблюдается дымка, при ухудшении видимости до 1 км и менее - туман. В сухую погоду видимость может ухудшаться дымом, пылью или мглою.
Явления - указаны атмосферные явления, наблюдавшиеся в срок или в последний час перед сроком; фигурными скобками обозначены явления, наблюдавшиеся между сроками (за 1-3 часа до срока); квадратными скобками обозначены град или гололедные отложения с указанием их диаметра в мм.
Облачность - указаны через наклонную черту общая и нижняя облачность в баллах и высота нижней границы облаков в метрах; квадратными скобками обозначены формы облаков: Ci - перистые, Cs - перисто-слоистые, Cc - перисто-кучевые, Ac - высококучевые, As - высокослоистые, Sc - слоисто-кучевые, Ns - слоисто-дождевые, Cu - кучевые, Cb - кучево-дождевые. Подробнее классификацию облаков см. в Атласе облаков (PDF).
T - Температура воздуха - температура, измеренная на высоте 2 м над землей.
Td - Температура точки росы - температура, при понижении до которой содержащийся в воздухе водяной пар достигнет насыщения.
f - Относительная влажность воздуха - влажноcть воздуха, измеренная на высоте 2 м над землей.
Te - Эффективная температура - температура, которую ощущает одетый по сезону человек в тени. Характеристика душности погоды. При расчете учитывается влияние влажности воздуха и скорости ветра на теплоощущения человека.
Tes - Эффективная температура на солнце - температура, которую ощущает человек, с поправкой на солнечный нагрев. Характеристика знойности погоды. Зависит от высоты солнца над горизонтом, облачности и скорости ветра. Ночью, в пасмурную погоду, а также при ветре 12 м/с и более поправка равна нулю.
P - Атмосферное давление - приведенное к уровню моря атмосферное давление.
Po - Атмосферное давление - измеренное на уровне метеостанции атмосферное давление.
Tmin - Минимальная температура - минимум температуры воздуха на высоте 2 м над землей.
Tmax - Максимальная температура - максимум температуры воздуха на высоте 2 м над землей.
R - Количество осадков - Количество выпавших осадков за период времени, мм. При наведении курсора мыши на число - период времени, за который выпало указанное количество осадков.
R24 - Количество осадков - Количество выпавших осадков за 24 часа, мм.
S - Снежный покров - Высота снежного покрова, см. При наведении курсора мыши на число - состояние снежного покрова и степень покрытия местности в баллах.